EW7942 Weather Reports


Display with metric or nautical units.
time (UTC)temp
F
wind
direction
speed
MPH
gust
MPH
rain 1hr
in
rain 24hr
in
rain mn
in
humidity
%
barometer
mb
20190221122503 44 90 0.0 0.0 0.00 0.06 0.00 88 1008.1
20190221122002 44 113 0.0 0.0 0.00 0.06 0.00 88 1008.1
20190221121503 44 68 0.0 0.0 0.00 0.06 0.00 88 1008.1
20190221121003 45 135 0.0 0.0 0.00 0.06 0.00 88 1008.1
20190221120504 44 113 0.0 0.0 0.00 0.06 0.00 88 1008.1
20190221120002 44 113 0.0 0.0 0.00 0.06 0.00 88 1008.4
20190221115502 45 113 0.0 0.0 0.00 0.06 0.00 88 1008.1
20190221115002 45 113 0.0 0.0 0.00 0.06 0.00 88 1008.4
20190221114502 45 113 0.0 0.0 0.00 0.06 0.00 88 1008.1
20190221114001 46 113 0.0 0.0 0.00 0.06 0.00 88 1008.4
20190221113503 46 113 0.0 0.0 0.00 0.06 0.00 88 1008.4
20190221113003 46 113 0.0 0.0 0.00 0.06 0.00 88 1008.4
20190221112502 46 113 0.0 0.0 0.00 0.06 0.00 88 1008.4
20190221112001 46 158 0.0 0.0 0.00 0.06 0.00 88 1008.1
20190221111503 46 158 0.0 0.0 0.00 0.06 0.00 88 1008.8
20190221111001 46 158 0.0 0.0 0.00 0.06 0.00 88 1008.8
20190221110504 46 113 0.0 0.0 0.00 0.06 0.00 88 1008.8
20190221110004 46 203 0.0 0.0 0.00 0.06 0.00 88 1008.8
20190221105502 46 293 0.0 0.0 0.00 0.06 0.00 88 1008.8
20190221105005 46 293 0.0 0.0 0.00 0.06 0.00 88 1008.8
20190221104443 46 293 0.0 0.0 0.00 0.06 0.00 88 1008.8
20190221103943 46 293 0.0 0.0 0.00 0.06 0.00 88 1008.8
20190221103442 46 225 0.0 0.0 0.00 0.06 0.00 88 1009.1
20190221102944 46 248 0.0 0.0 0.00 0.06 0.00 88 1008.8
20190221102444 46 248 0.0 0.0 0.00 0.06 0.00 88 1009.1
20190221101943 46 270 0.0 0.0 0.00 0.06 0.00 88 1009.1
20190221101442 46 248 0.0 0.0 0.00 0.06 0.00 88 1009.1
20190221100943 46 248 0.0 0.0 0.00 0.06 0.00 88 1008.8
20190221100443 46 203 0.0 0.0 0.00 0.06 0.00 88 1009.1
20190221095943 46 203 0.0 0.0 0.00 0.06 0.00 88 1009.1
20190221095443 46 180 0.0 0.0 0.00 0.06 0.00 88 1009.1
20190221094944 46 180 0.0 0.0 0.00 0.06 0.00 88 1009.1
20190221094426 46 248 0.0 0.0 0.00 0.06 0.00 88 1009.1
20190221093925 46 270 0.0 0.0 0.00 0.06 0.00 88 1009.1
20190221093425 46 158 0.0 0.0 0.00 0.06 0.00 88 1009.1
20190221092924 47 270 0.0 0.0 0.00 0.06 0.00 88 1009.1
20190221092424 47 90 0.0 0.0 0.00 0.06 0.00 88 1009.1
20190221091924 47 203 0.0 0.0 0.00 0.06 0.00 88 1009.4
20190221091425 47 225 0.0 0.0 0.00 0.06 0.00 88 1009.4
20190221090925 47 270 0.0 0.0 0.00 0.06 0.00 88 1009.4
20190221090425 47 180 0.0 0.0 0.00 0.06 0.00 88 1009.4
20190221085926 47 68 0.0 0.0 0.00 0.06 0.00 88 1009.8
20190221085424 47 90 0.0 0.0 0.00 0.06 0.00 88 1009.4
20190221084924 47 113 0.0 0.0 0.00 0.06 0.00 88 1009.4
20190221084407 47 45 0.0 0.0 0.00 0.06 0.00 88 1009.4
20190221083906 47 113 0.0 0.0 0.00 0.06 0.00 88 1009.8
20190221083406 47 135 0.0 0.0 0.00 0.06 0.00 88 1009.8
20190221082906 47 225 0.0 0.0 0.01 0.06 0.00 88 1009.8
20190221082405 47 180 0.0 0.0 0.01 0.06 0.00 86 1009.8
20190221081906 47 68 0.0 0.0 0.01 0.06 0.00 86 1009.8
20190221081405 47 225 0.0 0.0 0.01 0.06 0.00 86 1009.8
20190221080905 47 225 0.0 1.0 0.01 0.06 0.00 86 1009.8
20190221080406 47 270 0.0 2.0 0.01 0.06 0.00 86 1009.8
20190221075906 47 158 1.0 2.0 0.01 0.06 0.06 85 1010.1
20190221075406 47 293 0.0 1.0 0.01 0.06 0.06 85 1010.1
20190221074907 48 113 1.0 2.0 0.01 0.06 0.06 83 1010.1
20190221074347 48 158 1.0 2.0 0.01 0.06 0.06 83 1010.1
20190221073847 48 113 0.0 2.0 0.01 0.06 0.06 83 1010.5
20190221073347 48 45 1.0 2.0 0.01 0.06 0.06 83 1010.5
20190221072847 48 113 0.0 1.0 0.00 0.05 0.05 83 1010.5
20190221072347 48 270 0.0 1.0 0.00 0.05 0.05 83 1010.5
20190221071847 48 135 0.0 1.0 0.00 0.05 0.05 83 1010.5
20190221071348 48 45 0.0 2.0 0.00 0.05 0.05 83 1010.8
20190221070847 48 180 1.0 2.0 0.00 0.05 0.05 83 1010.8
20190221070346 48 23 0.0 1.0 0.00 0.05 0.05 83 1010.8
20190221065847 48 315 0.0 0.0 0.00 0.05 0.05 83 1010.8
20190221065347 48 225 0.0 1.0 0.00 0.05 0.05 83 1010.8
20190221064849 48 203 0.0 1.0 0.00 0.05 0.05 85 1010.8
20190221064328 48 180 0.0 1.0 0.00 0.05 0.05 85 1010.8
20190221063828 48 23 0.0 0.0 0.00 0.05 0.05 86 1010.8
20190221063328 47 68 0.0 0.0 0.00 0.05 0.05 88 1011.2
20190221062829 47 180 0.0 0.0 0.00 0.05 0.05 88 1010.8
20190221062328 47 68 0.0 0.0 0.00 0.05 0.05 88 1011.2
20190221061828 47 225 0.0 0.0 0.00 0.05 0.05 90 1011.2
20190221061330 47 158 0.0 0.0 0.00 0.05 0.05 90 1011.2
20190221060831 47 23 0.0 0.0 0.00 0.05 0.05 90 1011.2
20190221060330 47 248 0.0 0.0 0.00 0.05 0.05 90 1011.2
20190221055828 47 68 0.0 0.0 0.00 0.05 0.05 90 1011.2
20190221055329 47 203 0.0 0.0 0.00 0.05 0.05 88 1011.2
20190221054830 47 23 0.0 0.0 0.00 0.05 0.05 88 1011.2
20190221054329 47 180 0.0 0.0 0.00 0.05 0.05 88 1011.6
20190221053828 47 113 0.0 0.0 0.00 0.05 0.05 88 1011.6
20190221053327 47 158 0.0 0.0 0.00 0.05 0.05 88 1011.6
20190221052829 47 90 0.0 1.0 0.00 0.05 0.05 88 1011.6
20190221052331 47 180 0.0 1.0 0.00 0.05 0.05 88 1011.6
20190221051827 47 270 0.0 1.0 0.00 0.05 0.05 88 1011.6
20190221051329 47 113 0.0 1.0 0.00 0.05 0.05 88 1011.6
20190221050830 47 270 0.0 1.0 0.00 0.05 0.05 88 1011.6
20190221050326 47 113 0.0 1.0 0.00 0.05 0.05 88 1011.6
20190221045828 47 113 0.0 1.0 0.00 0.05 0.05 88 1011.6
20190221045318 47 270 0.0 2.0 0.00 0.05 0.05 88 1011.6
20190221044810 47 180 1.0 2.0 0.01 0.05 0.05 88 1011.9
20190221044310 47 180 0.0 1.0 0.01 0.05 0.05 88 1011.9
20190221043809 48 203 1.0 1.0 0.01 0.05 0.05 88 1011.9
20190221043307 48 180 0.0 1.0 0.01 0.05 0.05 88 1011.6
20190221042752 48 158 0.0 1.0 0.01 0.05 0.05 88 1011.9
20190221042251 48 180 0.0 1.0 0.01 0.05 0.05 88 1011.9
20190221041751 48 225 0.0 2.0 0.01 0.05 0.05 88 1011.9
20190221041250 48 90 1.0 2.0 0.02 0.05 0.05 88 1011.9
20190221040750 48 180 0.0 1.0 0.02 0.05 0.05 88 1011.6
20190221040250 48 180 0.0 0.0 0.02 0.05 0.05 86 1012.2
20190221035750 48 113 0.0 0.0 0.04 0.05 0.05 86 1012.2
20190221035250 48 158 0.0 0.0 0.05 0.05 0.05 86 1012.2
20190221034749 48 158 0.0 0.0 0.04 0.04 0.04 85 1012.6
20190221034251 48 270 0.0 0.0 0.04 0.04 0.04 83 1012.6
20190221033751 48 315 0.0 0.0 0.04 0.04 0.04 83 1012.2
20190221033251 49 203 0.0 0.0 0.04 0.04 0.04 81 1012.6
20190221032734 49 225 0.0 0.0 0.04 0.04 0.04 80 1012.6
20190221032232 49 90 0.0 0.0 0.04 0.04 0.04 79 1012.6
20190221031731 49 270 0.0 0.0 0.03 0.03 0.04 79 1012.6
20190221031232 49 270 0.0 0.0 0.03 0.03 0.03 79 1012.6
20190221030731 49 180 0.0 0.0 0.03 0.03 0.03 78 1012.9
20190221030233 49 90 0.0 1.0 0.03 0.03 0.03 79 1012.9
20190221025732 50 113 0.0 1.0 0.01 0.01 0.01 76 1012.9
20190221025231 50 0 0.0 0.0 0.00 0.00 0.00 76 1012.9
20190221024731 50 113 0.0 0.0 0.00 0.00 0.00 75 1012.9
20190221024231 51 135 0.0 0.0 0.00 0.00 0.00 74 1012.9
20190221023732 51 113 0.0 1.0 0.00 0.00 0.00 73 1012.9
20190221023233 51 338 0.0 2.0 0.00 0.00 0.00 71 1012.9
20190221022713 51 315 1.0 2.0 0.00 0.00 0.00 70 1013.3
20190221022213 51 113 0.0 1.0 0.00 0.00 0.00 70 1013.3
20190221021713 51 158 0.0 2.0 0.00 0.00 0.00 69 1012.9
20190221021213 51 180 1.0 2.0 0.00 0.00 0.00 68 1013.3
20190221020713 51 90 1.0 2.0 0.00 0.00 0.00 68 1013.3
20190221020213 51 158 1.0 2.0 0.00 0.00 0.00 68 1013.3
20190221015714 51 90 1.0 2.0 0.00 0.00 0.00 68 1013.3
20190221015213 51 113 1.0 2.0 0.00 0.00 0.00 68 1013.3
20190221014711 51 90 1.0 2.0 0.00 0.00 0.00 66 1013.3
20190221014213 51 270 1.0 2.0 0.00 0.00 0.00 66 1013.3
20190221013713 52 203 1.0 2.0 0.00 0.00 0.00 65 1012.9
20190221013215 52 203 1.0 2.0 0.00 0.00 0.00 63 1012.9
20190221012654 52 45 1.0 2.0 0.00 0.00 0.00 63 1013.3
20190221012154 52 180 1.0 2.0 0.00 0.00 0.00 63 1013.3
20190221011654 53 293 1.0 2.0 0.00 0.00 0.00 61 1013.3
20190221011154 53 135 0.0 1.0 0.00 0.00 0.00 56 1013.3
20190221010654 53 180 0.0 1.0 0.00 0.00 0.00 56 1013.6
20190221010154 53 90 0.0 1.0 0.00 0.00 0.00 55 1013.6
20190221005654 53 90 0.0 2.0 0.00 0.00 0.00 55 1013.6
20190221005155 53 113 0.0 2.0 0.00 0.00 0.00 55 1013.6
20190221004653 53 180 1.0 2.0 0.00 0.00 0.00 55 1013.6
20190221004155 53 90 0.0 2.0 0.00 0.00 0.00 55 1013.9
20190221003654 53 248 0.0 2.0 0.00 0.00 0.00 54 1013.6
20190221003154 53 270 0.0 2.0 0.00 0.00 0.00 53 1013.9
20190221002637 54 113 1.0 1.0 0.00 0.00 0.00 53 1013.9
20190221002135 54 135 1.0 2.0 0.00 0.00 0.00 53 1013.9
20190221001635 54 135 0.0 2.0 0.00 0.00 0.00 53 1013.9
20190221001135 54 203 0.0 1.0 0.00 0.00 0.00 53 1013.9
20190221000636 54 90 0.0 0.0 0.00 0.00 0.00 51 1014.3
20190221000135 54 113 0.0 0.0 0.00 0.00 0.00 51 1014.3
20190220235637 55 135 0.0 0.0 0.00 0.00 0.00 53 1014.3
20190220235136 54 180 0.0 2.0 0.00 0.00 0.00 54 1014.6
20190220234634 54 270 0.0 2.0 0.00 0.00 0.00 54 1014.6
20190220234136 54 203 0.0 1.0 0.00 0.00 0.00 55 1014.6
20190220233635 53 180 0.0 2.0 0.00 0.00 0.00 55 1014.6
20190220233137 53 225 1.0 2.0 0.00 0.00 0.00 55 1015.0
20190220232617 53 203 1.0 2.0 0.00 0.00 0.00 55 1015.0
20190220232119 54 113 1.0 2.0 0.00 0.00 0.00 55 1015.0
20190220231618 54 113 1.0 2.0 0.00 0.00 0.00 54 1015.0
20190220231118 54 180 1.0 2.0 0.00 0.00 0.00 53 1015.0
20190220230616 54 158 1.0 2.0 0.00 0.00 0.00 53 1015.0
20190220230118 55 270 1.0 2.0 0.00 0.00 0.00 51 1015.3
20190220225621 55 270 0.0 2.0 0.00 0.00 0.00 50 1015.3
20190220225117 55 68 0.0 2.0 0.00 0.00 0.00 51 1015.3
20190220224615 55 203 1.0 2.0 0.00 0.00 0.00 51 1015.6
20190220224118 55 248 1.0 2.0 0.00 0.00 0.00 51 1015.6
20190220223616 54 113 0.0 2.0 0.00 0.00 0.00 51 1015.6
20190220223117 54 158 1.0 3.0 0.00 0.00 0.00 51 1015.6
20190220222617 54 113 1.0 3.0 0.00 0.00 0.00 53 1015.6
20190220222117 54 315 1.0 2.0 0.00 0.00 0.00 53 1015.6
20190220221616 54 158 1.0 3.0 0.00 0.00 0.00 54 1016.1
20190220221116 54 0 2.0 3.0 0.00 0.00 0.00 55 1015.6
20190220220616 54 90 1.0 2.0 0.00 0.00 0.00 55 1015.6
20190220220115 54 270 1.0 2.0 0.00 0.00 0.00 55 1016.1
20190220215617 54 113 1.0 2.0 0.00 0.00 0.00 55 1016.1
20190220215116 54 270 1.0 3.0 0.00 0.00 0.00 55 1015.6
20190220214616 54 225 2.0 3.0 0.00 0.00 0.00 56 1016.1
20190220214116 54 180 1.0 2.0 0.00 0.00 0.00 55 1016.1
20190220213617 54 90 1.0 2.0 0.00 0.00 0.00 55 1016.4
20190220213115 54 113 1.0 2.0 0.00 0.00 0.00 56 1016.4
20190220212616 54 68 1.0 2.0 0.00 0.00 0.00 59 1016.4
20190220212116 54 225 1.0 2.0 0.00 0.00 0.00 59 1016.8
20190220211618 54 225 0.0 2.0 0.00 0.00 0.00 59 1016.8
20190220211117 54 270 1.0 2.0 0.00 0.00 0.00 59 1016.8
20190220210616 53 158 1.0 3.0 0.00 0.00 0.00 59 1017.1
20190220210116 54 180 1.0 3.0 0.00 0.00 0.00 59 1017.1
20190220205617 53 90 1.0 3.0 0.00 0.00 0.00 60 1017.1
20190220205117 53 270 1.0 3.0 0.00 0.00 0.00 60 1017.4
20190220204616 53 135 1.0 2.0 0.00 0.00 0.00 58 1017.4
20190220204117 53 45 1.0 2.0 0.00 0.00 0.00 58 1017.4
20190220203618 53 113 1.0 2.0 0.00 0.00 0.00 58 1017.8
20190220203117 53 248 0.0 2.0 0.00 0.00 0.00 56 1017.8
20190220202618 54 90 1.0 2.0 0.00 0.00 0.00 56 1017.4
20190220202116 53 225 1.0 2.0 0.00 0.00 0.00 56 1017.8
20190220201617 54 90 1.0 2.0 0.00 0.00 0.00 56 1018.1
20190220201115 54 225 0.0 1.0 0.00 0.00 0.00 56 1018.1
20190220200616 54 113 0.0 2.0 0.00 0.00 0.00 56 1018.1
20190220200116 53 225 1.0 2.0 0.00 0.00 0.00 56 1018.1
20190220195616 53 113 1.0 2.0 0.00 0.00 0.00 56 1018.4
20190220195059 54 248 1.0 2.0 0.00 0.00 0.00 55 1018.8
20190220194558 54 113 1.0 3.0 0.00 0.00 0.00 55 1018.8
20190220194059 53 90 0.0 3.0 0.00 0.00 0.00 56 1018.8
20190220193558 54 270 0.0 1.0 0.00 0.00 0.00 55 1019.1
20190220193056 54 45 0.0 2.0 0.00 0.00 0.00 55 1019.1
20190220192558 53 135 1.0 2.0 0.00 0.00 0.00 55 1019.5
20190220192057 54 203 0.0 2.0 0.00 0.00 0.00 55 1019.5
20190220191557 54 270 1.0 2.0 0.00 0.00 0.00 55 1019.5
20190220191057 54 225 1.0 2.0 0.00 0.00 0.00 55 1019.5
20190220190601 54 203 1.0 2.0 0.00 0.00 0.00 55 1019.5
20190220190057 54 180 1.0 3.0 0.00 0.00 0.00 54 1019.5
20190220185557 54 225 2.0 3.0 0.00 0.00 0.00 54 1019.5
20190220185057 55 0 1.0 3.0 0.00 0.00 0.00 54 1019.5
20190220184558 55 113 1.0 3.0 0.00 0.00 0.00 54 1019.8
20190220184056 55 180 1.0 2.0 0.00 0.00 0.00 53 1019.5
20190220183600 55 248 1.0 2.0 0.00 0.00 0.00 53 1019.8
20190220183057 55 225 1.0 2.0 0.00 0.00 0.00 53 1019.8
20190220182556 56 270 1.0 2.0 0.00 0.00 0.00 53 1019.5
20190220182058 55 158 1.0 2.0 0.00 0.00 0.00 54 1019.8
20190220181558 55 180 1.0 3.0 0.00 0.00 0.00 54 1019.5
20190220181056 55 68 1.0 3.0 0.00 0.00 0.00 53 1019.8
20190220180558 58 180 1.0 2.0 0.00 0.00 0.00 51 1019.8
20190220180057 56 203 1.0 2.0 0.00 0.00 0.00 53 1019.8
20190220175556 55 248 1.0 2.0 0.00 0.00 0.00 54 1019.8
20190220175040 54 270 1.0 3.0 0.00 0.00 0.00 55 1019.8
20190220174539 55 225 1.0 3.0 0.00 0.00 0.00 53 1020.1
20190220174041 55 293 1.0 2.0 0.00 0.00 0.00 53 1020.5
20190220173539 54 225 1.0 3.0 0.00 0.00 0.00 54 1020.5
20190220173038 54 293 1.0 3.0 0.00 0.00 0.00 54 1020.8
20190220172537 54 90 0.0 1.0 0.00 0.00 0.00 54 1020.5
20190220172022 53 270 0.0 2.0 0.00 0.00 0.00 55 1020.8
20190220171525 53 248 1.0 2.0 0.00 0.00 0.00 55 1021.3
20190220171020 53 90 0.0 1.0 0.00 0.00 0.00 56 1020.8
20190220170528 51 180 0.0 2.0 0.00 0.00 0.00 59 1020.8
20190220170020 51 158 1.0 2.0 0.00 0.00 0.00 59 1020.5
20190220165522 50 113 2.0 2.0 0.00 0.00 0.00 60 1021.3
20190220165002 49 203 1.0 2.0 0.00 0.00 0.00 61 1021.3
20190220164501 49 113 1.0 2.0 0.00 0.00 0.00 61 1021.6
20190220164001 48 225 1.0 3.0 0.00 0.00 0.00 63 1021.3
20190220163501 47 180 2.0 3.0 0.00 0.00 0.00 63 1021.6
20190220163001 47 270 2.0 3.0 0.00 0.00 0.00 63 1021.3
20190220162502 46 113 2.0 3.0 0.00 0.00 0.00 65 1021.3
20190220162001 46 113 2.0 3.0 0.00 0.00 0.00 65 1021.3
20190220161501 46 23 2.0 3.0 0.00 0.00 0.00 65 1021.9
20190220161001 46 158 2.0 4.0 0.00 0.00 0.00 65 1021.6
20190220160501 46 270 2.0 4.0 0.00 0.00 0.00 65 1021.9
20190220160002 46 270 1.0 3.0 0.00 0.00 0.00 65 1021.9
20190220155500 45 338 2.0 3.0 0.00 0.00 0.00 66 1021.9
20190220155001 44 203 1.0 3.0 0.00 0.00 0.00 68 1021.6
20190220154500 44 158 2.0 3.0 0.00 0.00 0.00 69 1021.9
20190220154003 43 113 1.0 2.0 0.00 0.00 0.00 69 1021.6
20190220153442 43 45 1.0 2.0 0.00 0.00 0.00 70 1021.9
20190220152941 43 180 1.0 2.0 0.00 0.00 0.00 70 1021.9
20190220152442 42 0 1.0 2.0 0.00 0.00 0.00 70 1021.6
20190220151944 42 113 1.0 2.0 0.00 0.00 0.00 70 1021.6
20190220151442 42 135 1.0 2.0 0.00 0.00 0.00 70 1021.6
20190220150942 42 113 1.0 2.0 0.00 0.00 0.00 71 1021.6
20190220150443 42 203 1.0 2.0 0.00 0.00 0.00 71 1021.6
20190220145942 41 338 0.0 2.0 0.00 0.00 0.00 71 1021.6
20190220145440 41 158 0.0 2.0 0.00 0.00 0.00 71 1021.6
20190220144942 41 270 0.0 1.0 0.00 0.00 0.00 71 1021.6
20190220144442 40 225 0.0 3.0 0.00 0.00 0.00 71 1021.6
20190220143942 40 158 0.0 3.0 0.00 0.00 0.00 73 1021.6
20190220143424 40 113 1.0 2.0 0.00 0.00 0.00 73 1021.6
20190220142924 40 203 0.0 1.0 0.00 0.00 0.00 73 1021.6
20190220142423 40 90 0.0 2.0 0.00 0.00 0.00 73 1021.6
20190220141925 40 158 0.0 2.0 0.00 0.00 0.00 73 1021.6
20190220141423 40 23 0.0 1.0 0.00 0.00 0.00 73 1021.6
20190220140924 40 113 0.0 1.0 0.00 0.00 0.00 73 1021.9
20190220140423 40 158 0.0 1.0 0.00 0.00 0.00 73 1021.6
20190220135923 40 90 1.0 1.0 0.00 0.00 0.00 73 1021.9
20190220135422 40 45 0.0 1.0 0.00 0.00 0.00 73 1021.6
20190220134923 40 113 0.0 1.0 0.00 0.00 0.00 73 1021.6
20190220134423 40 23 0.0 2.0 0.00 0.00 0.00 73 1021.6
20190220133923 40 135 1.0 2.0 0.00 0.00 0.00 73 1021.6
20190220133424 40 270 1.0 1.0 0.00 0.00 0.00 73 1021.6
20190220132923 40 270 0.0 1.0 0.00 0.00 0.00 73 1021.6
20190220132422 40 203 0.0 1.0 0.00 0.00 0.00 73 1021.6
20190220131924 40 225 0.0 1.0 0.00 0.00 0.00 73 1021.3
20190220131423 40 270 0.0 0.0 0.00 0.00 0.00 73 1021.6
20190220130924 40 270 0.0 0.0 0.00 0.00 0.00 71 1021.6
20190220130423 40 225 0.0 0.0 0.00 0.00 0.00 70 1021.6
20190220125923 41 113 0.0 1.0 0.00 0.00 0.00 70 1021.9
20190220125422 41 248 0.0 1.0 0.00 0.00 0.00 70 1021.6
20190220124924 41 180 0.0 1.0 0.00 0.00 0.00 70 1021.9
20190220124423 41 293 0.0 2.0 0.00 0.00 0.00 70 1021.9
20190220123923 41 135 1.0 2.0 0.00 0.00 0.00 70 1021.9
20190220123424 41 203 1.0 2.0 0.00 0.00 0.00 70 1021.9
20190220122923 41 113 1.0 2.0 0.00 0.00 0.00 70 1021.9